Station Historical Data
Daily Summary for April 26, 2012 Units:  English    Metric   Both
« Previous Day
Next Day »
Daily Weekly Monthly Yearly Custom
  High: Low: Average:
Temperature: 74.4 °F 66.2 °F 70.3 °F
Dew Point: 67.3 °F 57.0 °F 63.1 °F
Humidity: 93% 63% 78%
Wind Speed: 17.0mph 0.0mph 6.8mph
Wind Gust: 22.0mph - -
Wind- - SW
Pressure: 29.89 in 29.79 in -
Precipitation: 0.00 in    
Historical Graphs
 
 
Tabular Data for April 26, 2012
Time Temperature Dew Point Pressure Wind Wind Speed Wind Gust Humidity Rainfall Rate (Hourly) Conditions
00:00 70.2 °F 57.0 °F 29.79 in South 3.0 mph 7.0 mph 63% 0.00 in
00:03 70.2 °F 57.0 °F 29.79 in SSW 4.0 mph 11.0 mph 63% 0.00 in
00:05 70.3 °F 57.1 °F 29.79 in SW 5.0 mph 9.0 mph 63% 0.00 in
00:10 70.2 °F 57.5 °F 29.79 in SSW 1.0 mph 8.0 mph 64% 0.00 in
00:12 70.1 °F 57.4 °F 29.79 in SW 9.0 mph 9.0 mph 64% 0.00 in
00:17 70.0 °F 57.3 °F 29.79 in SW 5.0 mph 8.0 mph 64% 0.00 in
00:22 70.1 °F 57.4 °F 29.79 in SSW 3.0 mph 9.0 mph 64% 0.00 in
00:27 70.2 °F 57.5 °F 29.79 in SW 5.0 mph 10.0 mph 64% 0.00 in
00:32 70.0 °F 57.7 °F 29.79 in SW 8.0 mph 9.0 mph 65% 0.00 in
00:37 70.0 °F 57.7 °F 29.79 in SSW 6.0 mph 11.0 mph 65% 0.00 in
00:42 70.2 °F 57.9 °F 29.79 in WSW 6.0 mph 11.0 mph 65% 0.00 in
00:47 70.4 °F 58.1 °F 29.79 in SW 4.0 mph 12.0 mph 65% 0.00 in
00:52 70.5 °F 58.2 °F 29.79 in WSW 7.0 mph 11.0 mph 65% 0.00 in
00:57 70.7 °F 58.4 °F 29.79 in SW 11.0 mph 14.0 mph 65% 0.00 in
01:02 70.8 °F 58.5 °F 29.80 in South 5.0 mph 11.0 mph 65% 0.00 in
01:07 70.7 °F 58.8 °F 29.79 in SW 11.0 mph 11.0 mph 66% 0.00 in
01:12 70.8 °F 58.9 °F 29.79 in WSW 6.0 mph 11.0 mph 66% 0.00 in
01:17 70.7 °F 58.8 °F 29.80 in SSW 6.0 mph 11.0 mph 66% 0.00 in
01:22 70.8 °F 58.9 °F 29.80 in SW 6.0 mph 14.0 mph 66% 0.00 in
01:27 70.9 °F 59.0 °F 29.80 in SW 8.0 mph 12.0 mph 66% 0.00 in
01:32 70.7 °F 59.2 °F 29.80 in WSW 4.0 mph 12.0 mph 67% 0.00 in
01:38 70.6 °F 59.5 °F 29.80 in SW 8.0 mph 11.0 mph 68% 0.00 in
01:43 70.5 °F 59.4 °F 29.80 in SW 9.0 mph 11.0 mph 68% 0.00 in
01:48 70.6 °F 59.5 °F 29.80 in SSW 6.0 mph 12.0 mph 68% 0.00 in
01:53 70.6 °F 59.5 °F 29.80 in SW 7.0 mph 12.0 mph 68% 0.00 in
01:58 70.5 °F 59.4 °F 29.80 in West 4.0 mph 11.0 mph 68% 0.00 in
02:03 70.3 °F 59.7 °F 29.80 in SW 11.0 mph 13.0 mph 69% 0.00 in
02:08 70.3 °F 59.7 °F 29.80 in SW 13.0 mph 14.0 mph 69% 0.00 in
02:13 70.3 °F 59.7 °F 29.80 in SW 10.0 mph 12.0 mph 69% 0.00 in
02:18 70.2 °F 59.6 °F 29.80 in SW 11.0 mph 12.0 mph 69% 0.00 in
02:23 70.3 °F 59.7 °F 29.80 in SW 9.0 mph 13.0 mph 69% 0.00 in
02:28 70.0 °F 59.8 °F 29.80 in SW 12.0 mph 12.0 mph 70% 0.00 in
02:33 69.9 °F 59.7 °F 29.80 in SSW 6.0 mph 15.0 mph 70% 0.00 in
02:38 69.9 °F 59.7 °F 29.80 in SSW 11.0 mph 17.0 mph 70% 0.00 in
02:43 69.9 °F 59.7 °F 29.80 in SSW 11.0 mph 14.0 mph 70% 0.00 in
02:48 69.6 °F 59.8 °F 29.80 in SW 8.0 mph 11.0 mph 71% 0.00 in
02:53 69.6 °F 59.8 °F 29.80 in SW 13.0 mph 15.0 mph 71% 0.00 in
02:58 69.6 °F 59.8 °F 29.80 in SW 13.0 mph 14.0 mph 71% 0.00 in
03:03 69.7 °F 59.9 °F 29.80 in SW 8.0 mph 15.0 mph 71% 0.00 in
03:08 69.7 °F 59.9 °F 29.79 in SW 8.0 mph 14.0 mph 71% 0.00 in
03:13 69.5 °F 59.7 °F 29.80 in SW 14.0 mph 14.0 mph 71% 0.00 in
03:18 69.4 °F 60.0 °F 29.79 in WSW 6.0 mph 11.0 mph 72% 0.00 in
03:23 69.4 °F 60.0 °F 29.79 in SW 5.0 mph 14.0 mph 72% 0.00 in
03:29 69.2 °F 59.8 °F 29.80 in SW 12.0 mph 13.0 mph 72% 0.00 in
03:34 69.4 °F 60.0 °F 29.79 in WSW 10.0 mph 16.0 mph 72% 0.00 in
03:39 69.4 °F 60.0 °F 29.79 in WSW 11.0 mph 17.0 mph 72% 0.00 in
03:44 69.4 °F 60.0 °F 29.80 in SSW 6.0 mph 13.0 mph 72% 0.00 in
03:49 69.3 °F 59.9 °F 29.79 in SW 13.0 mph 15.0 mph 72% 0.00 in
03:54 69.3 °F 59.9 °F 29.79 in SW 4.0 mph 14.0 mph 72% 0.00 in
03:59 69.2 °F 60.2 °F 29.79 in SW 11.0 mph 13.0 mph 73% 0.00 in
04:04 69.2 °F 60.2 °F 29.79 in SW 14.0 mph 14.0 mph 73% 0.00 in
04:09 69.0 °F 60.0 °F 29.80 in SW 13.0 mph 14.0 mph 73% 0.00 in
04:14 69.0 °F 60.4 °F 29.80 in SW 10.0 mph 17.0 mph 74% 0.00 in
04:19 68.8 °F 60.2 °F 29.80 in SW 6.0 mph 22.0 mph 74% 0.00 in
04:24 68.8 °F 60.2 °F 29.80 in SW 10.0 mph 15.0 mph 74% 0.00 in
04:29 68.7 °F 60.1 °F 29.80 in SW 17.0 mph 17.0 mph 74% 0.00 in
04:34 68.7 °F 60.1 °F 29.80 in SW 11.0 mph 13.0 mph 74% 0.00 in
04:39 68.6 °F 60.0 °F 29.80 in SSW 7.0 mph 17.0 mph 74% 0.00 in
04:44 68.4 °F 60.2 °F 29.79 in SW 11.0 mph 13.0 mph 75% 0.00 in
04:49 68.3 °F 60.1 °F 29.79 in SW 9.0 mph 15.0 mph 75% 0.00 in
04:52 68.1 °F 59.9 °F 29.79 in West 8.0 mph 12.0 mph 75% 0.00 in
04:57 68.1 °F 59.9 °F 29.79 in WSW 8.0 mph 15.0 mph 75% 0.00 in
05:02 68.1 °F 60.3 °F 29.79 in WSW 10.0 mph 17.0 mph 76% 0.00 in
05:07 68.0 °F 60.2 °F 29.80 in SSW 11.0 mph 18.0 mph 76% 0.00 in
05:12 68.0 °F 59.8 °F 29.80 in SW 11.0 mph 14.0 mph 75% 0.00 in
05:17 67.9 °F 60.1 °F 29.80 in SW 11.0 mph 18.0 mph 76% 0.00 in
05:22 67.8 °F 60.0 °F 29.80 in SW 11.0 mph 12.0 mph 76% 0.00 in
05:27 67.8 °F 60.0 °F 29.80 in SSW 15.0 mph 16.0 mph 76% 0.00 in
05:32 67.8 °F 60.0 °F 29.80 in SSW 9.0 mph 20.0 mph 76% 0.00 in
05:37 67.7 °F 59.9 °F 29.80 in SW 11.0 mph 14.0 mph 76% 0.00 in
05:42 67.7 °F 59.9 °F 29.79 in WSW 12.0 mph 16.0 mph 76% 0.00 in
05:47 67.6 °F 59.8 °F 29.80 in SSW 4.0 mph 15.0 mph 76% 0.00 in
05:52 67.6 °F 59.8 °F 29.80 in SW 9.0 mph 20.0 mph 76% 0.00 in
05:57 67.5 °F 59.7 °F 29.80 in SW 14.0 mph 17.0 mph 76% 0.00 in
06:02 67.5 °F 59.7 °F 29.80 in SW 9.0 mph 13.0 mph 76% 0.00 in
06:07 67.5 °F 59.7 °F 29.79 in SW 14.0 mph 14.0 mph 76% 0.00 in
06:12 67.5 °F 59.7 °F 29.80 in WSW 13.0 mph 13.0 mph 76% 0.00 in
06:17 67.5 °F 59.7 °F 29.80 in WSW 10.0 mph 16.0 mph 76% 0.00 in
06:22 67.4 °F 60.0 °F 29.80 in SW 8.0 mph 14.0 mph 77% 0.00 in
06:27 67.3 °F 59.8 °F 29.80 in SW 10.0 mph 11.0 mph 77% 0.00 in
06:32 67.2 °F 59.8 °F 29.80 in SW 12.0 mph 12.0 mph 77% 0.00 in
06:37 67.1 °F 59.7 °F 29.80 in SW 12.0 mph 12.0 mph 77% 0.00 in
06:43 67.1 °F 59.7 °F 29.80 in West 4.0 mph 14.0 mph 77% 0.00 in
06:48 67.0 °F 59.6 °F 29.80 in SW 11.0 mph 15.0 mph 77% 0.00 in
06:53 66.9 °F 59.8 °F 29.81 in SW 13.0 mph 13.0 mph 78% 0.00 in
06:58 66.8 °F 59.7 °F 29.81 in SW 10.0 mph 15.0 mph 78% 0.00 in
07:03 66.7 °F 59.6 °F 29.81 in SW 10.0 mph 11.0 mph 78% 0.00 in
07:08 66.6 °F 59.5 °F 29.81 in SSW 9.0 mph 12.0 mph 78% 0.00 in
07:13 66.5 °F 59.8 °F 29.82 in SW 11.0 mph 11.0 mph 79% 0.00 in
07:18 66.5 °F 59.8 °F 29.82 in SW 8.0 mph 17.0 mph 79% 0.00 in
07:23 66.4 °F 59.7 °F 29.82 in WSW 6.0 mph 14.0 mph 79% 0.00 in
07:28 66.4 °F 59.7 °F 29.82 in SW 15.0 mph 17.0 mph 79% 0.00 in
07:33 66.3 °F 59.6 °F 29.81 in SSW 6.0 mph 12.0 mph 79% 0.00 in
07:38 66.2 °F 59.5 °F 29.81 in SW 8.0 mph 15.0 mph 79% 0.00 in
07:43 66.2 °F 59.9 °F 29.82 in SW 10.0 mph 11.0 mph 80% 0.00 in
07:48 66.2 °F 59.9 °F 29.81 in WSW 7.0 mph 13.0 mph 80% 0.00 in
07:53 66.2 °F 59.9 °F 29.82 in SW 6.0 mph 11.0 mph 80% 0.00 in
07:58 66.3 °F 60.0 °F 29.82 in WSW 10.0 mph 12.0 mph 80% 0.00 in
08:03 66.3 °F 60.0 °F 29.82 in WSW 15.0 mph 18.0 mph 80% 0.00 in
08:08 66.6 °F 59.9 °F 29.81 in SW 11.0 mph 17.0 mph 79% 0.00 in
08:13 66.8 °F 60.1 °F 29.82 in SSW 5.0 mph 18.0 mph 79% 0.00 in
08:18 67.0 °F 60.3 °F 29.81 in South 7.0 mph 15.0 mph 79% 0.00 in
08:23 67.0 °F 60.3 °F 29.81 in SW 15.0 mph 16.0 mph 79% 0.00 in
08:28 66.9 °F 60.2 °F 29.81 in SW 12.0 mph 15.0 mph 79% 0.00 in
08:33 66.7 °F 60.3 °F 29.82 in SSW 8.0 mph 12.0 mph 80% 0.00 in
08:39 66.6 °F 60.2 °F 29.83 in SW 5.0 mph 15.0 mph 80% 0.00 in
08:44 66.3 °F 60.0 °F 29.83 in WNW 5.0 mph 7.0 mph 80% 0.00 in
08:49 66.3 °F 60.3 °F 29.83 in SW 9.0 mph 14.0 mph 81% 0.00 in
08:54 66.7 °F 60.7 °F 29.83 in SW 9.0 mph 11.0 mph 81% 0.00 in
08:59 66.7 °F 60.3 °F 29.83 in WSW 10.0 mph 15.0 mph 80% 0.00 in
09:04 66.6 °F 60.6 °F 29.84 in WSW 10.0 mph 16.0 mph 81% 0.00 in
09:09 66.8 °F 60.8 °F 29.84 in SW 8.0 mph 14.0 mph 81% 0.00 in
09:14 66.7 °F 60.7 °F 29.83 in SW 17.0 mph 17.0 mph 81% 0.00 in
09:19 66.5 °F 60.5 °F 29.83 in West 5.0 mph 14.0 mph 81% 0.00 in
09:24 66.4 °F 60.7 °F 29.83 in SW 7.0 mph 11.0 mph 82% 0.00 in
09:29 66.5 °F 60.8 °F 29.83 in South 4.0 mph 11.0 mph 82% 0.00 in
09:34 66.5 °F 60.5 °F 29.84 in SW 16.0 mph 16.0 mph 81% 0.00 in
09:39 67.0 °F 61.3 °F 29.84 in SW 8.0 mph 11.0 mph 82% 0.00 in
09:44 67.4 °F 61.0 °F 29.83 in SW 11.0 mph 17.0 mph 80% 0.00 in
09:49 67.7 °F 61.3 °F 29.83 in WSW 4.0 mph 12.0 mph 80% 0.00 in
09:54 67.8 °F 61.1 °F 29.84 in SW 5.0 mph 17.0 mph 79% 0.00 in
09:59 67.7 °F 61.3 °F 29.84 in WSW 11.0 mph 13.0 mph 80% 0.00 in
10:04 68.3 °F 61.9 °F 29.84 in SSW 7.0 mph 12.0 mph 80% 0.00 in
10:09 68.1 °F 61.3 °F 29.84 in West 9.0 mph 13.0 mph 79% 0.00 in
10:14 68.4 °F 62.0 °F 29.84 in SW 8.0 mph 13.0 mph 80% 0.00 in
10:20 68.5 °F 61.7 °F 29.85 in SSW 6.0 mph 13.0 mph 79% 0.00 in
10:25 68.5 °F 61.7 °F 29.84 in SW 9.0 mph 11.0 mph 79% 0.00 in
10:30 68.8 °F 61.7 °F 29.85 in South 10.0 mph 14.0 mph 78% 0.00 in
10:35 69.2 °F 62.4 °F 29.85 in SSW 6.0 mph 11.0 mph 79% 0.00 in
10:40 69.6 °F 62.1 °F 29.85 in South 7.0 mph 12.0 mph 77% 0.00 in
10:45 70.1 °F 62.2 °F 29.85 in SSW 17.0 mph 17.0 mph 76% 0.00 in
10:50 70.1 °F 62.6 °F 29.85 in SW 10.0 mph 12.0 mph 77% 0.00 in
10:55 69.8 °F 62.3 °F 29.85 in SW 7.0 mph 15.0 mph 77% 0.00 in
11:00 70.1 °F 62.9 °F 29.85 in SSW 9.0 mph 13.0 mph 78% 0.00 in
11:05 70.3 °F 62.8 °F 29.85 in South 4.0 mph 14.0 mph 77% 0.00 in
11:10 70.5 °F 63.0 °F 29.85 in WSW 9.0 mph 18.0 mph 77% 0.00 in
11:15 70.8 °F 62.9 °F 29.85 in SSW 9.0 mph 14.0 mph 76% 0.00 in
11:20 70.9 °F 63.7 °F 29.85 in WSW 8.0 mph 14.0 mph 78% 0.00 in
11:26 71.2 °F 63.3 °F 29.85 in SW 10.0 mph 15.0 mph 76% 0.00 in
11:31 71.4 °F 63.5 °F 29.85 in SW 6.0 mph 17.0 mph 76% 0.00 in
11:36 71.7 °F 63.7 °F 29.85 in WSW 10.0 mph 12.0 mph 76% 0.00 in
11:41 72.0 °F 64.4 °F 29.85 in South 12.0 mph 15.0 mph 77% 0.00 in
11:46 72.6 °F 64.6 °F 29.85 in WSW 8.0 mph 13.0 mph 76% 0.00 in
11:51 72.5 °F 64.1 °F 29.85 in SW 17.0 mph 17.0 mph 75% 0.00 in
11:56 72.3 °F 64.3 °F 29.85 in SW 10.0 mph 18.0 mph 76% 0.00 in
12:01 72.5 °F 64.5 °F 29.85 in SW 6.0 mph 13.0 mph 76% 0.00 in
12:06 72.4 °F 64.0 °F 29.85 in SSW 10.0 mph 14.0 mph 75% 0.00 in
12:11 72.4 °F 64.0 °F 29.85 in SW 13.0 mph 16.0 mph 75% 0.00 in
12:16 72.5 °F 64.5 °F 29.85 in SSW 9.0 mph 15.0 mph 76% 0.00 in
12:21 72.8 °F 64.4 °F 29.86 in West 8.0 mph 16.0 mph 75% 0.00 in
12:26 72.8 °F 64.4 °F 29.86 in WSW 12.0 mph 15.0 mph 75% 0.00 in
12:31 72.5 °F 64.1 °F 29.86 in SSW 11.0 mph 20.0 mph 75% 0.00 in
12:36 72.4 °F 64.4 °F 29.85 in WSW 4.0 mph 13.0 mph 76% 0.00 in
12:41 72.7 °F 64.3 °F 29.85 in SW 11.0 mph 14.0 mph 75% 0.00 in
12:46 72.7 °F 64.3 °F 29.85 in WSW 10.0 mph 12.0 mph 75% 0.00 in
12:51 73.3 °F 65.3 °F 29.85 in WSW 9.0 mph 13.0 mph 76% 0.00 in
12:56 73.8 °F 65.4 °F 29.85 in SW 6.0 mph 10.0 mph 75% 0.00 in
13:01 73.7 °F 65.3 °F 29.85 in SW 7.0 mph 13.0 mph 75% 0.00 in
13:06 73.4 °F 65.0 °F 29.85 in SSW 6.0 mph 10.0 mph 75% 0.00 in
13:12 73.7 °F 65.7 °F 29.84 in SW 4.0 mph 11.0 mph 76% 0.00 in
13:17 74.2 °F 65.8 °F 29.85 in WSW 13.0 mph 17.0 mph 75% 0.00 in
13:22 74.1 °F 65.3 °F 29.84 in WSW 9.0 mph 16.0 mph 74% 0.00 in
13:27 74.1 °F 65.3 °F 29.85 in SW 9.0 mph 13.0 mph 74% 0.00 in
13:32 74.1 °F 66.1 °F 29.84 in SW 4.0 mph 12.0 mph 76% 0.00 in
13:37 74.4 °F 66.0 °F 29.84 in West 5.0 mph 12.0 mph 75% 0.00 in
13:42 74.3 °F 65.9 °F 29.84 in SW 8.0 mph 13.0 mph 75% 0.00 in
13:47 74.4 °F 65.6 °F 29.84 in SW 6.0 mph 14.0 mph 74% 0.00 in
13:52 73.7 °F 65.3 °F 29.84 in SW 11.0 mph 17.0 mph 75% 0.00 in
13:57 73.7 °F 65.7 °F 29.84 in SW 14.0 mph 14.0 mph 76% 0.00 in
14:02 73.5 °F 65.5 °F 29.84 in SW 11.0 mph 13.0 mph 76% 0.00 in
14:07 73.2 °F 65.2 °F 29.85 in West 11.0 mph 15.0 mph 76% 0.00 in
14:12 73.1 °F 65.8 °F 29.84 in SW 9.0 mph 14.0 mph 78% 0.00 in
14:17 73.0 °F 65.4 °F 29.84 in SSW 5.0 mph 13.0 mph 77% 0.00 in
14:22 73.1 °F 65.8 °F 29.85 in SSW 7.0 mph 11.0 mph 78% 0.00 in
14:23 73.1 °F 65.8 °F 29.85 in South 8.0 mph 13.0 mph 78% 0.00 in
14:24 73.1 °F 65.8 °F 29.85 in SSW 7.0 mph 13.0 mph 78% 0.00 in
14:29 73.1 °F 65.8 °F 29.85 in SW 8.0 mph 12.0 mph 78% 0.00 in
14:34 73.3 °F 66.0 °F 29.84 in SW 8.0 mph 9.0 mph 78% 0.00 in
14:39 73.2 °F 65.6 °F 29.85 in SSW 7.0 mph 15.0 mph 77% 0.00 in
14:44 73.3 °F 66.0 °F 29.84 in SW 5.0 mph 12.0 mph 78% 0.00 in
14:49 73.3 °F 66.0 °F 29.85 in SW 9.0 mph 12.0 mph 78% 0.00 in
14:54 73.2 °F 65.9 °F 29.84 in SSW 3.0 mph 13.0 mph 78% 0.00 in
14:59 73.3 °F 66.0 °F 29.84 in SW 10.0 mph 13.0 mph 78% 0.00 in
15:04 73.2 °F 65.9 °F 29.85 in West 6.0 mph 13.0 mph 78% 0.00 in
15:09 73.5 °F 66.6 °F 29.84 in SW 7.0 mph 10.0 mph 79% 0.00 in
15:14 73.6 °F 66.3 °F 29.84 in SSW 12.0 mph 12.0 mph 78% 0.00 in
15:19 73.5 °F 66.2 °F 29.84 in SW 10.0 mph 12.0 mph 78% 0.00 in
15:24 73.5 °F 66.2 °F 29.84 in SW 13.0 mph 13.0 mph 78% 0.00 in
15:29 73.6 °F 66.3 °F 29.84 in SW 13.0 mph 13.0 mph 78% 0.00 in
15:34 73.4 °F 66.1 °F 29.84 in South 4.0 mph 12.0 mph 78% 0.00 in
15:39 73.5 °F 66.2 °F 29.84 in SSW 3.0 mph 10.0 mph 78% 0.00 in
15:44 73.4 °F 66.1 °F 29.84 in SW 4.0 mph 12.0 mph 78% 0.00 in
15:50 73.4 °F 66.1 °F 29.84 in SW 9.0 mph 13.0 mph 78% 0.00 in
15:55 73.2 °F 65.9 °F 29.84 in WSW 4.0 mph 12.0 mph 78% 0.00 in
16:00 73.3 °F 66.0 °F 29.84 in SW 7.0 mph 12.0 mph 78% 0.00 in
16:05 73.3 °F 66.4 °F 29.84 in South 13.0 mph 13.0 mph 79% 0.00 in
16:10 73.3 °F 66.0 °F 29.84 in SW 8.0 mph 12.0 mph 78% 0.00 in
16:15 73.4 °F 66.1 °F 29.84 in SSW 5.0 mph 11.0 mph 78% 0.00 in
16:20 73.5 °F 66.6 °F 29.83 in WSW 10.0 mph 13.0 mph 79% 0.00 in
16:25 73.8 °F 66.9 °F 29.83 in SW 9.0 mph 12.0 mph 79% 0.00 in
16:30 74.0 °F 67.1 °F 29.83 in WSW 8.0 mph 11.0 mph 79% 0.00 in
16:35 74.1 °F 67.2 °F 29.83 in SW 7.0 mph 10.0 mph 79% 0.00 in
16:40 74.1 °F 66.8 °F 29.83 in WSW 8.0 mph 10.0 mph 78% 0.00 in
16:45 74.0 °F 67.1 °F 29.83 in WSW 4.0 mph 8.0 mph 79% 0.00 in
16:50 74.0 °F 67.1 °F 29.83 in SW 4.0 mph 8.0 mph 79% 0.00 in
16:55 74.0 °F 67.1 °F 29.83 in SSW 4.0 mph 13.0 mph 79% 0.00 in
16:56 73.9 °F 67.0 °F 29.83 in SSW 5.0 mph 13.0 mph 79% 0.00 in
17:01 73.9 °F 67.0 °F 29.83 in WSW 4.0 mph 9.0 mph 79% 0.00 in
17:06 73.8 °F 66.9 °F 29.83 in WSW 5.0 mph 8.0 mph 79% 0.00 in
17:11 73.7 °F 66.8 °F 29.83 in SW 10.0 mph 11.0 mph 79% 0.00 in
17:16 73.5 °F 66.6 °F 29.83 in WSW 8.0 mph 10.0 mph 79% 0.00 in
17:21 73.4 °F 66.9 °F 29.83 in SW 7.0 mph 9.0 mph 80% 0.00 in
17:26 73.3 °F 66.8 °F 29.83 in SW 7.0 mph 8.0 mph 80% 0.00 in
17:31 73.3 °F 67.1 °F 29.84 in SW 3.0 mph 6.0 mph 81% 0.00 in
17:36 73.3 °F 67.1 °F 29.84 in SW 2.0 mph 5.0 mph 81% 0.00 in
17:41 73.3 °F 67.1 °F 29.84 in SW 2.0 mph 6.0 mph 81% 0.00 in
17:46 73.3 °F 67.1 °F 29.83 in SW 5.0 mph 6.0 mph 81% 0.00 in
17:51 73.3 °F 67.1 °F 29.83 in South 6.0 mph 8.0 mph 81% 0.00 in
17:56 73.3 °F 67.1 °F 29.83 in SW 2.0 mph 10.0 mph 81% 0.00 in
18:01 73.4 °F 67.2 °F 29.83 in SW 6.0 mph 9.0 mph 81% 0.00 in
18:06 73.5 °F 67.3 °F 29.83 in SW 6.0 mph 8.0 mph 81% 0.00 in
18:11 73.5 °F 67.0 °F 29.83 in WSW 6.0 mph 10.0 mph 80% 0.00 in
18:16 73.4 °F 66.9 °F 29.83 in SSW 4.0 mph 8.0 mph 80% 0.00 in
18:21 73.2 °F 67.0 °F 29.83 in SW 5.0 mph 9.0 mph 81% 0.00 in
18:27 73.1 °F 66.9 °F 29.83 in SW 7.0 mph 8.0 mph 81% 0.00 in
18:32 72.9 °F 66.7 °F 29.83 in SW 4.0 mph 6.0 mph 81% 0.00 in
18:37 72.9 °F 67.1 °F 29.83 in SSW 3.0 mph 6.0 mph 82% 0.00 in
18:42 72.9 °F 67.1 °F 29.83 in SW 5.0 mph 6.0 mph 82% 0.00 in
18:47 72.9 °F 67.1 °F 29.84 in SW 2.0 mph 6.0 mph 82% 0.00 in
18:52 73.0 °F 67.2 °F 29.84 in WSW 4.0 mph 6.0 mph 82% 0.00 in
18:57 73.1 °F 67.3 °F 29.84 in SW 9.0 mph 9.0 mph 82% 0.00 in
19:02 73.0 °F 67.2 °F 29.84 in WSW 6.0 mph 8.0 mph 82% 0.00 in
19:07 72.9 °F 67.1 °F 29.84 in SW 5.0 mph 10.0 mph 82% 0.00 in
19:12 72.8 °F 67.0 °F 29.83 in SW 2.0 mph 7.0 mph 82% 0.00 in
19:17 72.5 °F 67.1 °F 29.83 in WSW 2.0 mph 4.0 mph 83% 0.00 in
19:22 72.3 °F 66.8 °F 29.83 in South 3.0 mph 4.0 mph 83% 0.00 in
19:27 72.2 °F 66.8 °F 29.84 in South 2.0 mph 5.0 mph 83% 0.00 in
19:32 72.0 °F 66.9 °F 29.84 in SW 2.0 mph 3.0 mph 84% 0.00 in
19:37 71.8 °F 66.7 °F 29.83 in South 3.0 mph 5.0 mph 84% 0.00 in
19:42 71.7 °F 66.6 °F 29.83 in South 4.0 mph 6.0 mph 84% 0.00 in
19:47 71.6 °F 66.5 °F 29.83 in SSW 2.0 mph 5.0 mph 84% 0.00 in
19:52 71.5 °F 66.4 °F 29.84 in SW 4.0 mph 5.0 mph 84% 0.00 in
19:57 71.5 °F 66.8 °F 29.84 in SSW 3.0 mph 7.0 mph 85% 0.00 in
20:02 71.4 °F 66.7 °F 29.84 in SSW 2.0 mph 5.0 mph 85% 0.00 in
20:07 71.4 °F 66.7 °F 29.84 in South 2.0 mph 3.0 mph 85% 0.00 in
20:12 71.3 °F 66.6 °F 29.84 in SSW 1.0 mph 3.0 mph 85% 0.00 in
20:17 71.2 °F 66.5 °F 29.85 in SW 2.0 mph 3.0 mph 85% 0.00 in
20:22 71.2 °F 66.5 °F 29.86 in WSW 2.0 mph 4.0 mph 85% 0.00 in
20:28 71.1 °F 66.4 °F 29.86 in South 2.0 mph 5.0 mph 85% 0.00 in
20:33 70.8 °F 66.4 °F 29.86 in SSE 1.0 mph 3.0 mph 86% 0.00 in
20:38 70.9 °F 66.5 °F 29.87 in SW 1.0 mph 3.0 mph 86% 0.00 in
20:43 70.7 °F 66.3 °F 29.87 in SSW 2.0 mph 3.0 mph 86% 0.00 in
20:48 70.7 °F 66.3 °F 29.86 in SSW 1.0 mph 3.0 mph 86% 0.00 in
20:53 70.5 °F 66.4 °F 29.87 in Calm   2.0 mph 87% 0.00 in
20:58 70.4 °F 66.3 °F 29.87 in SSE 1.0 mph 1.0 mph 87% 0.00 in
21:03 70.4 °F 66.3 °F 29.87 in Calm   1.0 mph 87% 0.00 in
21:08 70.3 °F 66.2 °F 29.87 in Calm     87% 0.00 in
21:13 70.2 °F 66.2 °F 29.87 in Calm   1.0 mph 87% 0.00 in
21:18 70.0 °F 66.3 °F 29.87 in Calm   1.0 mph 88% 0.00 in
21:23 69.8 °F 66.1 °F 29.87 in Calm     88% 0.00 in
21:28 69.6 °F 65.9 °F 29.87 in South 1.0 mph 1.0 mph 88% 0.00 in
21:33 69.5 °F 66.1 °F 29.87 in SE 2.0 mph 3.0 mph 89% 0.00 in
21:38 69.6 °F 66.2 °F 29.87 in SSE 2.0 mph 2.0 mph 89% 0.00 in
21:43 69.5 °F 65.8 °F 29.87 in SE 1.0 mph 2.0 mph 88% 0.00 in
21:48 69.3 °F 65.9 °F 29.87 in Calm   1.0 mph 89% 0.00 in
21:53 69.1 °F 65.7 °F 29.87 in Calm   1.0 mph 89% 0.00 in
21:58 68.8 °F 65.4 °F 29.88 in Calm   1.0 mph 89% 0.00 in
22:03 68.6 °F 65.6 °F 29.88 in SSE 1.0 mph 1.0 mph 90% 0.00 in
22:08 68.6 °F 65.6 °F 29.88 in Calm     90% 0.00 in
22:13 68.6 °F 65.6 °F 29.88 in Calm     90% 0.00 in
22:18 68.5 °F 65.5 °F 29.88 in SE 1.0 mph 1.0 mph 90% 0.00 in
22:23 68.3 °F 65.3 °F 29.88 in Calm   1.0 mph 90% 0.00 in
22:28 68.1 °F 65.1 °F 29.88 in SE 2.0 mph 2.0 mph 90% 0.00 in
22:33 67.7 °F 65.0 °F 29.88 in Calm   2.0 mph 91% 0.00 in
22:38 67.7 °F 65.0 °F 29.89 in Calm     91% 0.00 in
22:43 67.7 °F 65.0 °F 29.89 in Calm     91% 0.00 in
22:49 67.6 °F 64.9 °F 29.89 in Calm     91% 0.00 in
22:53 67.6 °F 64.9 °F 29.89 in SSE 1.0 mph 2.0 mph 91% 0.00 in
22:59 67.4 °F 64.7 °F 29.89 in SE 2.0 mph 3.0 mph 91% 0.00 in
23:04 67.2 °F 64.8 °F 29.89 in SSE 1.0 mph 2.0 mph 92% 0.00 in
23:09 67.0 °F 64.6 °F 29.89 in Calm     92% 0.00 in
23:14 67.0 °F 64.6 °F 29.89 in Calm     92% 0.00 in
23:19 66.9 °F 64.5 °F 29.89 in Calm     92% 0.00 in
23:24 66.7 °F 64.3 °F 29.89 in Calm   1.0 mph 92% 0.00 in
23:29 66.7 °F 64.3 °F 29.89 in Calm     92% 0.00 in
23:34 66.7 °F 64.3 °F 29.89 in Calm     92% 0.00 in
23:39 66.7 °F 64.3 °F 29.89 in Calm     92% 0.00 in
23:44 66.6 °F 64.2 °F 29.89 in Calm     92% 0.00 in
23:49 66.6 °F 64.2 °F 29.89 in Calm     92% 0.00 in
23:54 66.6 °F 64.5 °F 29.89 in Calm   1.0 mph 93% 0.00 in
23:59 66.6 °F 64.5 °F 29.89 in South 1.0 mph 1.0 mph 93% 0.00 in
Compliments of Weather Underground